Content
SEND FEEDBACK

Daily
Averages
Monthly
Summary
Norway

NAMSOS, NORWAY


Home > Europe > Norway
Elevation: 7 feet     Latitude: 64 28N     Longitude: 011 35E

WEATHER
 
SELECT A DAY
Number of Records: 87,077;   Date Range: 7/1/96 - 10/21/14
 
SHARE

PRINT THIS DATA

[ ← Previous Day ]
WEATHER ALMANAC - JANUARY 31, 2013
[ Next Day → ]
[ °C ]   °F
Weather ElementAverageHighLow
Temperature34 °F35.6 °F (6:20 am)30.2 °F (9:20 pm)
Dewpoint28.5 °F30.2 °F (7:50 am)24.8 °F (8:20 pm)
Humidity80.6 %93 % (3:50 pm)70 % (2:20 pm)
Barometer29.04 in29.12 in (7:50 pm)28.88 in (6:20 am)
Wind Speed6.7 mph11.5 mph (6:20 am)
Weather ElementAverage
Visibility5.7 mi
Wind DirectionWSW (245.3 °)

Weather ElementTotal
Precipitation---
Heating Degree Days32.1 (Base 65)
Averaged from 30 records on January 31, 2013
WEATHER CONDITIONS BREAKOUT
WIND DIRECTION BREAKOUT
WEATHER BY HOUR - JANUARY 31, 2013
[ °C ]   °F
Local TimeTemperatureDewpointHumidityBarometerVisibilityWind DirectionWind SpeedGust SpeedPrecipitationEventsConditions
6:20 AM35.6 °F28.4 °F75 %28.88 in4.3 miWest (270°)11.5 mphSnowLight Snow Showers
6:50 AM33.8 °F28.4 °F81 %28.91 in6.2 miWSW (250°)5.8 mphPartly Cloudy
7:20 AM35.6 °F28.4 °F75 %28.91 in6.2 miWSW (240°)8.1 mphScattered Clouds
7:50 AM33.8 °F30.2 °F87 %28.94 in6.2 miWSW (250°)6.9 mphScattered Clouds
8:20 AM35.6 °F28.4 °F75 %28.94 in6.2 miSW (230°)6.9 mphScattered Clouds
8:50 AM33.8 °F28.4 °F81 %28.97 in3.1 miSW (230°)4.6 mphSnowLight Snow Showers
9:50 AM33.8 °F30.2 °F87 %29.00 in6.2 miWSW (240°)6.9 mphMostly Cloudy
10:20 AM33.8 °F30.2 °F87 %29.00 in6.2 miWest (260°)6.9 mphScattered Clouds
10:50 AM35.6 °F30.2 °F81 %29.00 in6.2 miSW (220°)10.4 mphMostly Cloudy
11:20 AM35.6 °F30.2 °F81 %29.03 in6.2 miWest (260°)5.8 mphScattered Clouds
11:50 AM35.6 °F30.2 °F81 %29.03 in6.2 miWest (270°)3.5 mphScattered Clouds
12:20 PM35.6 °F28.4 °F75 %29.03 in6.2 miWest (270°)5.8 mphScattered Clouds
12:50 PM35.6 °F28.4 °F75 %29.03 in6.2 miWNW (300°)6.9 mphSnowLight Snow Showers
1:20 PM35.6 °F28.4 °F75 %29.03 in6.2 miWest (260°)4.6 mphScattered Clouds
1:50 PM33.8 °F28.4 °F81 %29.03 in6.2 miWSW (240°)4.6 mphMostly Cloudy
2:20 PM35.6 °F26.6 °F70 %29.06 in6.2 miWest (260°)4.6 mphMostly Cloudy
2:50 PM35.6 °F26.6 °F70 %29.06 in6.2 miWest (260°)9.2 mphScattered Clouds
3:20 PM35.6 °F26.6 °F70 %29.06 in3.1 miWest (280°)10.4 mphSnowSnow Showers
3:50 PM32.0 °F30.2 °F93 %29.06 in6.2 miWest (260°)9.2 mphSnowLight Snow Showers
4:20 PM33.8 °F30.2 °F87 %29.06 in6.2 miWest (260°)5.8 mphMostly Cloudy
4:50 PM33.8 °F28.4 °F81 %29.09 in6.2 miVariable5.8 mphMostly Cloudy
5:20 PM32.0 °F28.4 °F87 %29.09 in6.2 miWest (260°)4.6 mphMostly Cloudy
5:50 PM32.0 °F28.4 °F87 %29.09 in2.2 miWest (280°)3.5 mphSnowLight Snow Showers
6:20 PM32.0 °F30.2 °F93 %29.09 in6.2 miWSW (250°)6.9 mphSnowLight Snow Showers
6:50 PM33.8 °F30.2 °F87 %29.09 in6.2 miSW (230°)10.4 mphMostly Cloudy
7:20 PM33.8 °F28.4 °F81 %29.09 in6.2 miWSW (250°)8.1 mphMostly Cloudy
7:50 PM32.0 °F26.6 °F80 %29.12 in2.2 miWest (280°)4.6 mphSnowLight Snow Showers
8:20 PM32.0 °F24.8 °F75 %29.12 in6.2 miSW (220°)8.1 mphScattered Clouds
8:50 PM32.0 °F26.6 °F80 %29.12 in6.2 miSW (230°)4.6 mphMostly Cloudy
9:20 PM30.2 °F24.8 °F80 %29.12 in6.2 miWSW (250°)5.8 mphScattered Clouds
Hourly data recorded from ENNM, located miles away from Namsos, Norway







STORIES FROM OUR PARTNERS